Regional Weather Roundup
Issued by NWS Upton, NY

Current Version | Previous Version | Text Only | Print | Product List | Glossary On
Versions: 1 2 3 4 5 6 7 8 9 10 11 12 13 14 15 16 17 18 19 20 21 22 23 24 25 26 27 28 29 30 31 32 33 34 35 36 37 38 39 40 41 42 43 44 45 46 47 48 49 50
000
ASUS41 KOKX 051908
RWROKX

REGIONAL WEATHER ROUNDUP
NATIONAL WEATHER SERVICE NEW YORK NY
300 PM EDT TUE MAY 05 2015

NOTE: "FAIR" INDICATES FEW OR NO CLOUDS BELOW 12,000 FEET WITH NO
SIGNIFICANT WEATHER AND/OR OBSTRUCTIONS TO VISIBILITY.

NYZ071-072-176-178-NJZ106-104-052000-
NEW YORK CITY METRO AREA


CITY           SKY/WX    TMP DP  RH WIND       PRES   REMARKS
CENTRAL PARK   MOSUNNY   84  53  34 CALM      30.19F
LAGUARDIA APRT PTSUNNY   79  53  40 NE7       30.17F
KENNEDY INTL   PTSUNNY   81  53  37 S10       30.19F
NEWARK/LIBERTY PTSUNNY   84  52  33 VRB6      30.17F
BRNX BOT. GARD   N/A     79  54  41 CALM      30.20S
TETERBORO      MOSUNNY   81  53  37 VRB3      30.16F
$$

NYZ177-179-078>081-052000-
LONG ISLAND NEW YORK

CITY           SKY/WX    TMP DP  RH WIND       PRES   REMARKS
FARMINGDALE    PTSUNNY   78  54  43 S10       30.18F
ISLIP          PTSUNNY   77  52  41 S10       30.17F
SHIRLEY        PTSUNNY   77  53  43 S10       30.20S
WESTHAMPTON    PTSUNNY   77  54  44 VRB5      30.20F
MONTAUK POINT    N/A     71  52  50 CALM      30.20F
$$

NYZ052-065-067-052000-
HUDSON VALLEY

CITY           SKY/WX    TMP DP  RH WIND       PRES   REMARKS
WHITE PLAINS   MOSUNNY   78  54  43 NW7       30.18F
NEWBURGH       MOSUNNY   79  55  44 VRB5      30.18
MONTGOMERY     MOSUNNY   83  46  27 W7        30.16F
POUGHKEEPSIE   MOSUNNY   78  48  34 CALM      30.16F
ALBANY         CLOUDY    76  45  33 VRB7      30.19F
$$

NJZ001-105-106-008-010-013-015-019>022-104-052000-
NEW JERSEY

CITY           SKY/WX    TMP DP  RH WIND       PRES   REMARKS
NEWARK/LIBERTY PTSUNNY   84  52  33 VRB6      30.17F
TETERBORO      MOSUNNY   81  53  37 VRB3      30.16F
CALDWELL       MOSUNNY   82  51  34 W8        30.18F
MORRISTOWN     PTSUNNY   81  55  41 W7G17     30.18F
SOMERVILLE     PTSUNNY   83  53  35 W3        30.16F
SUSSEX         MOSUNNY   82  48  30 MISG      30.19F
ANDOVER          N/A     81  51  35 VRB7      30.19F
TRENTON        MOSUNNY   81  53  37 SW9       30.18F
MILLVILLE      PTSUNNY   83  56  39 W15       30.20F
ATLANTIC CITY  PTSUNNY   84  55  36 W9        30.19F
WRIGHTSTOWN    PTSUNNY   82  55  39 VRB5      30.16F
TOMS RIVER     MOSUNNY   84  54  34 S9        30.19S
BELMAR         MOSUNNY   82  55  39 W8        30.19F
$$

PAZ047>061-062-071-052000-
EASTERN PENNSYLVANIA

CITY           SKY/WX    TMP DP  RH WIND       PRES   REMARKS
PHILADELPHIA   MOSUNNY   84  55  36 SW12      30.19F
ALLENTOWN      CLOUDY    79  54  41 NW9       30.20S
SCRANTON       CLOUDY    78  49  35 VRB5      30.21F
$$

CTZ002-004>006-009-010-012-RIZ004-006-007-MAZ004-011-015-052000-
SOUTHERN NEW ENGLAND
 IN CT

CITY           SKY/WX    TMP DP  RH WIND       PRES   REMARKS
BRADLEY INTL   PTSUNNY   81  46  29 VRB5      30.14F
HARTFORD       FAIR      79  51  37 SE10      30.15F
DANBURY        MOSUNNY   78  46  32 NW6       30.18F
WTRBRY/OXFORD  PTSUNNY   79  48  34 CALM      30.20F
BRIDGEPORT     PTSUNNY   76  54  46 SW10      30.18F
MERIDEN        PTSUNNY   80  51  36 S10       30.16F
NEW HAVEN      PTSUNNY   73  54  51 SW7       30.18F
CHESTER        FAIR      77  52  41 S12       30.18F
GROTON         MOSUNNY   67  51  56 SE8       30.17F
WILLIMANTIC    MOSUNNY   81  49  32 W6        30.16F

 IN RI

CITY           SKY/WX    TMP DP  RH WIND       PRES   REMARKS
PROVIDENCE     PTSUNNY   76  51  41 E9        30.17F
BLOCK ISLAND   PTSUNNY   72  54  53 S7        30.20F
WESTERLY       MOSUNNY   71  50  47 S6        30.19F

 IN MA

CITY           SKY/WX    TMP DP  RH WIND       PRES   REMARKS
BOSTON         MOSUNNY   69  53  56 E14       30.16F
WORCESTER      PTSUNNY   77  47  34 VRB7      30.18F
WESTFIELD      MOSUNNY   82  42  24 NW9       30.15F
PROVINCETOWN   CLOUDY    70  55  60 S3        30.20S
NANTUCKET      PTSUNNY   71  53  52 NE12      30.20F
$$

ANZ330-335-338-340-345-350-353-355-052000-
COASTAL MARINE OBSERVATIONS


STATION/POSITION TIME  SKY/WX   TEMP    WIND        PRES    VSBY  WAVE
                                AIR SEA DIR/SP/G                  HT/PER
                 (UTC)          (F)     (DEG/KT/KT) (MB)    (MI)  (FT/S)
NY HARB ENTRANCE 1850            56 54  160/  6/  8 1022.2          3/ 6
4S FIRE IS       1803               51                N/A           3/ 5
20S FIRE ISLAND  1850            53 49  260/  4/  4 1023.1          3/ 6
GREAT SOUTH BAY  1815            62 61  200/  4/  6   N/A
23SW MTP         1850            50 48  250/  4/  6 1022.6          4/ 6
HUDSON CANYON    NOT AVBL
KINGS POINT      1800            77      CALM  /  2 1022.0
EASTERN LI SOUND 1800            53     150/  6/  8   N/A
ROBBINS REEF     1800            74     160/ 10/ 11 1021.2
$$


>>>>>>>>>>>>>>>>>>>>>>>>>>>> KEY <<<<<<<<<<<<<<<<<<<<<<<<<<<
>                                                          <
>     SKY/WX - SKY CONDITION/PRESENT WEATHER               <
>     TMP    - TEMPERATURE IN FAHRENHEIT                   <
>     DP     - DEWPOINT IN FAHRENHEIT                      <
>     RH     - RELATIVE HUMIDITY IN PERCENT                <
>     WIND   - DIRECTION AND SPEED IN MPH                  <
>     PRES   - MEAN SEA LEVEL PRESSURE IN INCHES OF HG     <
>     WCI    - WIND CHILL INDEX                            <
>     VSB    - VISIBILITY IN MILES                         <
>     HX     - HEAT INDEX                                  <
>     TC     - TEMPERATURE IN CELSIUS                      <
>     VRB    - VARIABLE WIND DIRECTION                     <
>                                                          <
>>>>>>>>>>>>>>>>>>>>>>>>>>>> KEY <<<<<<<<<<<<<<<<<<<<<<<<<<<





USA.gov is the U.S. government's official web portal to all federal, state and local government web resources and services.